Year,Month,Day,Hour,Minute,Value (Times are PST for temperature in C)
2018,07,13,00,00,20.50
2018,07,13,00,01,20.50
2018,07,13,00,02,20.50
2018,07,13,00,03,20.50
2018,07,13,00,04,20.50
2018,07,13,00,05,20.50
2018,07,13,00,06,20.50
2018,07,13,00,07,20.50
2018,07,13,00,08,20.50
2018,07,13,00,09,20.50
2018,07,13,00,10,20.50
2018,07,13,00,11,20.50
2018,07,13,00,12,20.40
2018,07,13,00,13,20.40
2018,07,13,00,14,20.40
2018,07,13,00,15,20.40
2018,07,13,00,16,20.40
2018,07,13,00,17,20.40
2018,07,13,00,18,20.40
2018,07,13,00,19,20.40
2018,07,13,00,20,20.30
2018,07,13,00,21,20.30
2018,07,13,00,22,20.30
2018,07,13,00,23,20.20
2018,07,13,00,24,20.20
2018,07,13,00,25,20.20
2018,07,13,00,26,20.20
2018,07,13,00,27,20.20
2018,07,13,00,28,20.20
2018,07,13,00,29,20.20
2018,07,13,00,30,20.20
2018,07,13,00,31,20.20
2018,07,13,00,32,20.20
2018,07,13,00,33,20.20
2018,07,13,00,34,20.20
2018,07,13,00,35,20.20
2018,07,13,00,36,20.20
2018,07,13,00,37,20.10
2018,07,13,00,38,20.10
2018,07,13,00,39,20.10
2018,07,13,00,40,20.10
2018,07,13,00,41,20.10
2018,07,13,00,42,20.10
2018,07,13,00,43,20.10
2018,07,13,00,44,20.10
2018,07,13,00,45,20.10
2018,07,13,00,46,20.10
2018,07,13,00,47,20.10
2018,07,13,00,48,20.10
2018,07,13,00,49,20.10
2018,07,13,00,50,20.10
2018,07,13,00,51,20.10
2018,07,13,00,52,20.10
2018,07,13,00,53,20.10
2018,07,13,00,54,20.10
2018,07,13,00,55,20.10
2018,07,13,00,56,20.10
2018,07,13,00,57,20.00
2018,07,13,00,58,20.00
2018,07,13,00,59,20.00
2018,07,13,01,00,20.00
2018,07,13,01,01,20.00
2018,07,13,01,02,20.00
2018,07,13,01,03,20.00
2018,07,13,01,04,20.00
2018,07,13,01,05,20.00
2018,07,13,01,06,20.00
2018,07,13,01,07,20.00
2018,07,13,01,08,20.00
2018,07,13,01,09,19.90
2018,07,13,01,10,19.90
2018,07,13,01,11,19.90
2018,07,13,01,12,19.90
2018,07,13,01,13,19.90
2018,07,13,01,14,19.90
2018,07,13,01,15,19.90
2018,07,13,01,16,19.90
2018,07,13,01,17,19.90
2018,07,13,01,18,19.90
2018,07,13,01,19,19.90
2018,07,13,01,20,19.90
2018,07,13,01,21,19.90
2018,07,13,01,22,19.90
2018,07,13,01,23,19.90
2018,07,13,01,24,19.90
2018,07,13,01,25,19.90
2018,07,13,01,26,19.90
2018,07,13,01,27,19.80
2018,07,13,01,28,19.80
2018,07,13,01,29,19.80
2018,07,13,01,30,19.80
2018,07,13,01,31,19.80
2018,07,13,01,32,19.80
2018,07,13,01,33,19.80
2018,07,13,01,34,19.80
2018,07,13,01,35,19.80
2018,07,13,01,36,19.80
2018,07,13,01,37,19.70
2018,07,13,01,38,19.70
2018,07,13,01,39,19.70
2018,07,13,01,40,19.70
2018,07,13,01,41,19.80
2018,07,13,01,42,19.80
2018,07,13,01,43,19.80
2018,07,13,01,44,19.80
2018,07,13,01,45,19.80
2018,07,13,01,46,19.80
2018,07,13,01,47,19.80
2018,07,13,01,48,19.80
2018,07,13,01,49,19.80
2018,07,13,01,50,19.80
2018,07,13,01,51,19.80
2018,07,13,01,52,19.80
2018,07,13,01,53,19.80
2018,07,13,01,54,19.80
2018,07,13,01,55,19.80
2018,07,13,01,56,19.80
2018,07,13,01,57,19.80
2018,07,13,01,58,19.80
2018,07,13,01,59,19.80
2018,07,13,02,00,19.80
2018,07,13,02,01,19.80
2018,07,13,02,02,19.80
2018,07,13,02,03,19.80
2018,07,13,02,04,19.80
2018,07,13,02,05,19.70
2018,07,13,02,06,19.70
2018,07,13,02,07,19.70
2018,07,13,02,08,19.70
2018,07,13,02,09,19.70
2018,07,13,02,10,19.70
2018,07,13,02,11,19.70
2018,07,13,02,12,19.70
2018,07,13,02,13,19.60
2018,07,13,02,14,19.60
2018,07,13,02,15,19.60
2018,07,13,02,16,19.60
2018,07,13,02,17,19.60
2018,07,13,02,18,19.60
2018,07,13,02,19,19.60
2018,07,13,02,20,19.60
2018,07,13,02,21,19.60
2018,07,13,02,22,19.70
2018,07,13,02,23,19.70
2018,07,13,02,24,19.70
2018,07,13,02,25,19.70
2018,07,13,02,26,19.70
2018,07,13,02,27,19.60
2018,07,13,02,28,19.60
2018,07,13,02,29,19.60
2018,07,13,02,30,19.60
2018,07,13,02,31,19.60
2018,07,13,02,32,19.60
2018,07,13,02,33,19.60
2018,07,13,02,34,19.60
2018,07,13,02,35,19.60
2018,07,13,02,36,19.60
2018,07,13,02,37,19.60
2018,07,13,02,38,19.60
2018,07,13,02,39,19.60
2018,07,13,02,40,19.60
2018,07,13,02,41,19.60
2018,07,13,02,42,19.60
2018,07,13,02,43,19.60
2018,07,13,02,44,19.60
2018,07,13,02,45,19.60
2018,07,13,02,46,19.60
2018,07,13,02,47,19.60
2018,07,13,02,48,19.60
2018,07,13,02,49,19.60
2018,07,13,02,50,19.60
2018,07,13,02,51,19.60
2018,07,13,02,52,19.70
2018,07,13,02,53,19.70
2018,07,13,02,54,19.70
2018,07,13,02,55,19.70
2018,07,13,02,56,19.70
2018,07,13,02,57,19.70
2018,07,13,02,58,19.70
2018,07,13,02,59,19.70
2018,07,13,03,00,19.70
2018,07,13,03,01,19.70
2018,07,13,03,02,19.70
2018,07,13,03,03,19.70
2018,07,13,03,04,19.70
2018,07,13,03,05,19.70
2018,07,13,03,06,19.70
2018,07,13,03,07,19.70
2018,07,13,03,08,19.70
2018,07,13,03,09,19.60
2018,07,13,03,10,19.60
2018,07,13,03,11,19.60
2018,07,13,03,12,19.60
2018,07,13,03,13,19.60
2018,07,13,03,14,19.60
2018,07,13,03,15,19.50
2018,07,13,03,16,19.50
2018,07,13,03,17,19.50
2018,07,13,03,18,19.50
2018,07,13,03,19,19.40
2018,07,13,03,20,19.40
2018,07,13,03,21,19.40
2018,07,13,03,22,19.40
2018,07,13,03,23,19.30
2018,07,13,03,24,19.30
2018,07,13,03,25,19.30
2018,07,13,03,26,19.30
2018,07,13,03,27,19.20
2018,07,13,03,28,19.20
2018,07,13,03,29,19.20
2018,07,13,03,30,19.20
2018,07,13,03,31,19.20
2018,07,13,03,32,19.10
2018,07,13,03,33,19.10
2018,07,13,03,34,19.10
2018,07,13,03,35,19.10
2018,07,13,03,36,19.10
2018,07,13,03,37,19.20
2018,07,13,03,38,19.20
2018,07,13,03,39,19.20
2018,07,13,03,40,19.20
2018,07,13,03,41,19.20
2018,07,13,03,42,19.20
2018,07,13,03,43,19.20
2018,07,13,03,44,19.20
2018,07,13,03,45,19.20
2018,07,13,03,46,19.20
2018,07,13,03,47,19.20
2018,07,13,03,48,19.10
2018,07,13,03,49,19.10
2018,07,13,03,50,19.10
2018,07,13,03,51,19.10
2018,07,13,03,52,19.10
2018,07,13,03,53,19.10
2018,07,13,03,54,19.00
2018,07,13,03,55,19.00
2018,07,13,03,56,19.10
2018,07,13,03,57,19.10
2018,07,13,03,58,19.10
2018,07,13,03,59,19.10
2018,07,13,04,00,19.10
2018,07,13,04,01,19.10
2018,07,13,04,02,19.20
2018,07,13,04,03,19.20
2018,07,13,04,04,19.20
2018,07,13,04,05,19.20
2018,07,13,04,06,19.30
2018,07,13,04,07,19.30
2018,07,13,04,08,19.30
2018,07,13,04,09,19.30
2018,07,13,04,10,19.30
2018,07,13,04,11,19.30
2018,07,13,04,12,19.30
2018,07,13,04,13,19.30
2018,07,13,04,14,19.30
2018,07,13,04,15,19.30
2018,07,13,04,16,19.30
2018,07,13,04,17,19.30
2018,07,13,04,18,19.30
2018,07,13,04,19,19.30
2018,07,13,04,20,19.30
2018,07,13,04,21,19.30
2018,07,13,04,22,19.30
2018,07,13,04,23,19.30
2018,07,13,04,24,19.30
2018,07,13,04,25,19.30
2018,07,13,04,26,19.30
2018,07,13,04,27,19.30
2018,07,13,04,28,19.30
2018,07,13,04,29,19.20
2018,07,13,04,30,19.20
2018,07,13,04,31,19.20
2018,07,13,04,32,19.20
2018,07,13,04,33,19.10
2018,07,13,04,34,19.10
2018,07,13,04,35,19.10
2018,07,13,04,36,19.10
2018,07,13,04,37,19.00
2018,07,13,04,38,19.00
2018,07,13,04,39,18.90
2018,07,13,04,40,18.90
2018,07,13,04,41,18.90
2018,07,13,04,42,18.90
2018,07,13,04,43,18.90
2018,07,13,04,44,18.90
2018,07,13,04,45,18.90
2018,07,13,04,46,18.90
2018,07,13,04,47,18.80
2018,07,13,04,48,18.80
2018,07,13,04,49,18.80
2018,07,13,04,50,18.80
2018,07,13,04,51,18.70
2018,07,13,04,52,18.70
2018,07,13,04,53,18.70
2018,07,13,04,54,18.70
2018,07,13,04,55,18.70
2018,07,13,04,56,18.70
2018,07,13,04,57,18.70
2018,07,13,04,58,18.70
2018,07,13,04,59,18.70
2018,07,13,05,00,18.70
2018,07,13,05,01,18.70
2018,07,13,05,02,18.70
2018,07,13,05,03,18.70
2018,07,13,05,04,18.70
2018,07,13,05,05,18.70
2018,07,13,05,06,18.70
2018,07,13,05,07,18.70
2018,07,13,05,08,18.70
2018,07,13,05,09,18.70
2018,07,13,05,10,18.70
2018,07,13,05,11,18.80
2018,07,13,05,12,18.80
2018,07,13,05,13,18.80
2018,07,13,05,14,18.80
2018,07,13,05,15,18.80
2018,07,13,05,16,18.80
2018,07,13,05,17,18.80
2018,07,13,05,18,18.80
2018,07,13,05,19,18.80
2018,07,13,05,20,18.80
2018,07,13,05,21,18.80
2018,07,13,05,22,18.80
2018,07,13,05,23,18.80
2018,07,13,05,24,18.80
2018,07,13,05,25,18.80
2018,07,13,05,26,18.70
2018,07,13,05,27,18.70
2018,07,13,05,28,18.70
2018,07,13,05,29,18.70
2018,07,13,05,30,18.70
2018,07,13,05,31,18.70
2018,07,13,05,32,18.70
2018,07,13,05,33,18.60
2018,07,13,05,34,18.60
2018,07,13,05,35,18.60
2018,07,13,05,36,18.60
2018,07,13,05,37,18.60
2018,07,13,05,38,18.60
2018,07,13,05,39,18.60
2018,07,13,05,40,18.60
2018,07,13,05,41,18.70
2018,07,13,05,42,18.70
2018,07,13,05,43,18.70
2018,07,13,05,44,18.70
2018,07,13,05,45,18.60
2018,07,13,05,46,18.60
2018,07,13,05,47,18.60
2018,07,13,05,48,18.60
2018,07,13,05,49,18.60
2018,07,13,05,50,18.50
2018,07,13,05,51,18.50
2018,07,13,05,52,18.50
2018,07,13,05,53,18.40
2018,07,13,05,54,18.40
2018,07,13,05,55,18.40
2018,07,13,05,56,18.30
2018,07,13,05,57,18.30
2018,07,13,05,58,18.30
2018,07,13,05,59,18.30
2018,07,13,06,00,18.30
2018,07,13,06,01,18.20
2018,07,13,06,02,18.20
2018,07,13,06,03,18.30
2018,07,13,06,04,18.30
2018,07,13,06,05,18.30
2018,07,13,06,06,18.30
2018,07,13,06,07,18.30
2018,07,13,06,08,18.30
2018,07,13,06,09,18.30
2018,07,13,06,10,18.30
2018,07,13,06,11,18.30
2018,07,13,06,12,18.40
2018,07,13,06,13,18.40
2018,07,13,06,14,18.40
2018,07,13,06,15,18.40
2018,07,13,06,16,18.40
2018,07,13,06,17,18.40
2018,07,13,06,18,18.40
2018,07,13,06,19,18.50
2018,07,13,06,20,18.50
2018,07,13,06,21,18.50
2018,07,13,06,22,18.50
2018,07,13,06,23,18.50
2018,07,13,06,24,18.50
2018,07,13,06,25,18.50
2018,07,13,06,26,18.60
2018,07,13,06,27,18.60
2018,07,13,06,28,18.60
2018,07,13,06,29,18.60
2018,07,13,06,30,18.60
2018,07,13,06,31,18.60
2018,07,13,06,32,18.60
2018,07,13,06,33,18.60
2018,07,13,06,34,18.60
2018,07,13,06,35,18.60
2018,07,13,06,36,18.60
2018,07,13,06,37,18.70
2018,07,13,06,38,18.70
2018,07,13,06,39,18.70
2018,07,13,06,40,18.80
2018,07,13,06,41,18.80
2018,07,13,06,42,18.80
2018,07,13,06,43,18.90
2018,07,13,06,44,18.90
2018,07,13,06,45,18.90
2018,07,13,06,46,18.90
2018,07,13,06,47,18.90
2018,07,13,06,48,19.00
2018,07,13,06,49,19.00
2018,07,13,06,50,19.10
2018,07,13,06,51,19.10
2018,07,13,06,52,19.20
2018,07,13,06,53,19.20
2018,07,13,06,54,19.20
2018,07,13,06,55,19.20
2018,07,13,06,56,19.20
2018,07,13,06,57,19.30
2018,07,13,06,58,19.30
2018,07,13,06,59,19.30
2018,07,13,07,00,19.30
2018,07,13,07,01,19.30
2018,07,13,07,02,19.30
2018,07,13,07,03,19.30
2018,07,13,07,04,19.30
2018,07,13,07,05,19.30
2018,07,13,07,06,19.30
2018,07,13,07,07,19.40
2018,07,13,07,08,19.40
2018,07,13,07,09,19.40
2018,07,13,07,10,19.40
2018,07,13,07,11,19.40
2018,07,13,07,12,19.40
2018,07,13,07,13,19.40
2018,07,13,07,14,19.40
2018,07,13,07,15,19.40
2018,07,13,07,16,19.40
2018,07,13,07,17,19.30
2018,07,13,07,18,19.30
2018,07,13,07,19,19.20
2018,07,13,07,20,19.20
2018,07,13,07,21,19.10
2018,07,13,07,22,19.10
2018,07,13,07,23,19.10
2018,07,13,07,24,19.10
2018,07,13,07,25,19.10
2018,07,13,07,26,19.10
2018,07,13,07,27,19.10
2018,07,13,07,28,19.10
2018,07,13,07,29,19.10
2018,07,13,07,30,19.10
2018,07,13,07,31,19.10
2018,07,13,07,32,19.20
2018,07,13,07,33,19.20
2018,07,13,07,34,19.10
2018,07,13,07,35,19.10
2018,07,13,07,36,19.10
2018,07,13,07,37,19.20
2018,07,13,07,38,19.20
2018,07,13,07,39,19.20
2018,07,13,07,40,19.30
2018,07,13,07,41,19.30
2018,07,13,07,42,19.30
2018,07,13,07,43,19.30
2018,07,13,07,44,19.30
2018,07,13,07,45,19.30
2018,07,13,07,46,19.30
2018,07,13,07,47,19.30
2018,07,13,07,48,19.40
2018,07,13,07,49,19.40
2018,07,13,07,50,19.40
2018,07,13,07,51,19.40
2018,07,13,07,52,19.40
2018,07,13,07,53,19.40
2018,07,13,07,54,19.40
2018,07,13,07,55,19.40
2018,07,13,07,56,19.40
2018,07,13,07,57,19.50
2018,07,13,07,58,19.50
2018,07,13,07,59,19.60
2018,07,13,08,00,19.60
2018,07,13,08,01,19.60
2018,07,13,08,02,19.60
2018,07,13,08,03,19.70
2018,07,13,08,04,19.70
2018,07,13,08,05,19.70
2018,07,13,08,06,19.70
2018,07,13,08,07,19.80
2018,07,13,08,08,19.80
2018,07,13,08,09,19.90
2018,07,13,08,10,19.90
2018,07,13,08,11,19.90
2018,07,13,08,12,20.00
2018,07,13,08,13,20.00
2018,07,13,08,14,20.10
2018,07,13,08,15,20.10
2018,07,13,08,16,20.10
2018,07,13,08,17,20.10
2018,07,13,08,18,20.20
2018,07,13,08,19,20.30
2018,07,13,08,20,20.30
2018,07,13,08,21,20.30
2018,07,13,08,22,20.30
2018,07,13,08,23,20.30
2018,07,13,08,24,20.30
2018,07,13,08,25,20.30
2018,07,13,08,26,20.40
2018,07,13,08,27,20.40
2018,07,13,08,28,20.40
2018,07,13,08,29,20.40
2018,07,13,08,30,20.40
2018,07,13,08,31,20.40
2018,07,13,08,32,20.50
2018,07,13,08,33,20.40
2018,07,13,08,34,20.40
2018,07,13,08,35,20.40
2018,07,13,08,36,20.50
2018,07,13,08,37,20.50
2018,07,13,08,38,20.40
2018,07,13,08,39,20.40
2018,07,13,08,40,20.40
2018,07,13,08,41,20.40
2018,07,13,08,42,20.30
2018,07,13,08,43,20.40
2018,07,13,08,44,20.40
2018,07,13,08,45,20.40
2018,07,13,08,46,20.50
2018,07,13,08,47,20.50
2018,07,13,08,48,20.60
2018,07,13,08,49,20.70
2018,07,13,08,50,20.70
2018,07,13,08,51,20.70
2018,07,13,08,52,20.70
2018,07,13,08,53,20.80
2018,07,13,08,54,20.80
2018,07,13,08,55,20.90
2018,07,13,08,56,20.90
2018,07,13,08,57,20.90
2018,07,13,08,58,20.90
2018,07,13,08,59,20.90
2018,07,13,09,00,21.00
2018,07,13,09,01,21.00
2018,07,13,09,02,21.00
2018,07,13,09,03,21.00
2018,07,13,09,04,21.10
2018,07,13,09,05,21.10
2018,07,13,09,06,21.10
2018,07,13,09,07,21.10
2018,07,13,09,08,21.10
2018,07,13,09,09,21.20
2018,07,13,09,10,21.30
2018,07,13,09,11,21.30
2018,07,13,09,12,21.30
2018,07,13,09,13,21.40
2018,07,13,09,14,21.40
2018,07,13,09,15,21.40
2018,07,13,09,16,21.40
2018,07,13,09,17,21.40
2018,07,13,09,18,21.40
2018,07,13,09,19,21.40
2018,07,13,09,20,21.40
2018,07,13,09,21,21.30
2018,07,13,09,22,21.30
2018,07,13,09,23,21.30
2018,07,13,09,24,21.40
2018,07,13,09,25,21.40
2018,07,13,09,26,21.40
2018,07,13,09,27,21.50
2018,07,13,09,28,21.60
2018,07,13,09,29,21.70
2018,07,13,09,30,21.70
2018,07,13,09,31,21.60
2018,07,13,09,32,21.60
2018,07,13,09,33,21.60
2018,07,13,09,34,21.60
2018,07,13,09,35,21.60
2018,07,13,09,36,21.60
2018,07,13,09,37,21.60
2018,07,13,09,38,21.50
2018,07,13,09,39,21.40
2018,07,13,09,40,21.40
2018,07,13,09,41,21.40
2018,07,13,09,42,21.50
2018,07,13,09,43,21.40
2018,07,13,09,44,21.40
2018,07,13,09,45,21.50
2018,07,13,09,46,21.50
2018,07,13,09,47,21.40
2018,07,13,09,48,21.40
2018,07,13,09,49,21.40
2018,07,13,09,50,21.40
2018,07,13,09,51,21.40
2018,07,13,09,52,21.40
2018,07,13,09,53,21.40
2018,07,13,09,54,21.40
2018,07,13,09,55,21.40
2018,07,13,09,56,21.50
2018,07,13,09,57,21.60
2018,07,13,09,58,21.70
2018,07,13,09,59,21.70
2018,07,13,10,00,21.80
2018,07,13,10,01,21.80
2018,07,13,10,02,21.80
2018,07,13,10,03,21.80
2018,07,13,10,04,21.80
2018,07,13,10,05,21.70
2018,07,13,10,06,21.70
2018,07,13,10,07,21.60
2018,07,13,10,08,21.60
2018,07,13,10,09,21.60
2018,07,13,10,10,21.60
2018,07,13,10,11,21.60
2018,07,13,10,12,21.60
2018,07,13,10,13,21.50
2018,07,13,10,14,21.50
2018,07,13,10,15,21.50
2018,07,13,10,16,21.50
2018,07,13,10,17,21.50
2018,07,13,10,18,21.50
2018,07,13,10,19,21.60
2018,07,13,10,20,21.70
2018,07,13,10,21,21.70
2018,07,13,10,22,21.70
2018,07,13,10,23,21.70
2018,07,13,10,24,21.70
2018,07,13,10,25,21.70
2018,07,13,10,26,21.70
2018,07,13,10,27,21.70
2018,07,13,10,28,21.70
2018,07,13,10,29,21.70
2018,07,13,10,30,21.70
2018,07,13,10,31,21.70
2018,07,13,10,32,21.80
2018,07,13,10,33,21.90
2018,07,13,10,34,22.00
2018,07,13,10,35,22.00
2018,07,13,10,36,22.10
2018,07,13,10,37,22.10
2018,07,13,10,38,22.10
2018,07,13,10,39,22.10
2018,07,13,10,40,22.10
2018,07,13,10,41,22.10
2018,07,13,10,42,22.10
2018,07,13,10,43,22.10
2018,07,13,10,44,22.20
2018,07,13,10,45,22.20
2018,07,13,10,46,22.20
2018,07,13,10,47,22.30
2018,07,13,10,48,22.30
2018,07,13,10,49,22.20
2018,07,13,10,50,22.20
2018,07,13,10,51,22.10
2018,07,13,10,52,22.10
2018,07,13,10,53,22.10
2018,07,13,10,54,22.10
2018,07,13,10,55,22.20
2018,07,13,10,56,22.20
2018,07,13,10,57,22.30
2018,07,13,10,58,22.40
2018,07,13,10,59,22.50
2018,07,13,11,00,22.60
2018,07,13,11,01,22.60
2018,07,13,11,02,22.60
2018,07,13,11,03,22.60
2018,07,13,11,04,22.70
2018,07,13,11,05,22.70
2018,07,13,11,06,22.70
2018,07,13,11,07,22.70
2018,07,13,11,08,22.70
2018,07,13,11,09,22.70
2018,07,13,11,10,22.70
2018,07,13,11,11,22.70
2018,07,13,11,12,22.70
2018,07,13,11,13,22.70
2018,07,13,11,14,22.80
2018,07,13,11,15,22.80
2018,07,13,11,16,22.80
2018,07,13,11,17,22.90
2018,07,13,11,18,22.90
2018,07,13,11,19,22.90
2018,07,13,11,20,22.90
2018,07,13,11,21,22.90
2018,07,13,11,22,22.90
2018,07,13,11,23,22.90
2018,07,13,11,24,22.90
2018,07,13,11,25,22.90
2018,07,13,11,26,22.90
2018,07,13,11,27,22.90
2018,07,13,11,28,22.90
2018,07,13,11,29,22.90
2018,07,13,11,30,22.90
2018,07,13,11,31,23.00
2018,07,13,11,32,23.00
2018,07,13,11,33,23.00
2018,07,13,11,34,23.10
2018,07,13,11,35,23.10
2018,07,13,11,36,23.10
2018,07,13,11,37,23.10
2018,07,13,11,38,23.10
2018,07,13,11,39,23.10
2018,07,13,11,40,23.10
2018,07,13,11,41,23.20
2018,07,13,11,42,23.20
2018,07,13,11,43,23.30
2018,07,13,11,44,23.30
2018,07,13,11,45,23.30
2018,07,13,11,46,23.40
2018,07,13,11,47,23.30
2018,07,13,11,48,23.30
2018,07,13,11,49,23.30
2018,07,13,11,50,23.30
2018,07,13,11,51,23.30
2018,07,13,11,52,23.30
2018,07,13,11,53,23.40
2018,07,13,11,54,23.40
2018,07,13,11,55,23.50
2018,07,13,11,56,23.60
2018,07,13,11,57,23.60
2018,07,13,11,58,23.60
2018,07,13,11,59,23.60
2018,07,13,12,00,23.60
2018,07,13,12,01,23.60
2018,07,13,12,02,23.70
2018,07,13,12,03,23.70
2018,07,13,12,04,23.70
2018,07,13,12,05,23.70
2018,07,13,12,06,23.70
2018,07,13,12,07,23.70
2018,07,13,12,08,23.70
2018,07,13,12,09,23.80
2018,07,13,12,10,23.70
2018,07,13,12,11,23.70
2018,07,13,12,12,23.80
2018,07,13,12,13,23.80
2018,07,13,12,14,23.80
2018,07,13,12,15,23.80
2018,07,13,12,16,23.80
2018,07,13,12,17,23.80
2018,07,13,12,18,23.80
2018,07,13,12,19,23.80
2018,07,13,12,20,23.80
2018,07,13,12,21,23.90
2018,07,13,12,22,23.90
2018,07,13,12,23,23.80
2018,07,13,12,24,23.80
2018,07,13,12,25,23.70
2018,07,13,12,26,23.70
2018,07,13,12,27,23.70
2018,07,13,12,28,23.70
2018,07,13,12,29,23.70
2018,07,13,12,30,23.70
2018,07,13,12,31,23.70
2018,07,13,12,32,23.80
2018,07,13,12,33,23.80
2018,07,13,12,34,23.80
2018,07,13,12,35,23.90
2018,07,13,12,36,23.90
2018,07,13,12,37,24.00
2018,07,13,12,38,24.00
2018,07,13,12,39,24.10
2018,07,13,12,40,24.20
2018,07,13,12,41,24.20
2018,07,13,12,42,24.20
2018,07,13,12,43,24.20
2018,07,13,12,44,24.20
2018,07,13,12,45,24.20
2018,07,13,12,46,24.20
2018,07,13,12,47,24.20
2018,07,13,12,48,24.10
2018,07,13,12,49,24.10
2018,07,13,12,50,24.10
2018,07,13,12,51,24.10
2018,07,13,12,52,24.10
2018,07,13,12,53,24.10
2018,07,13,12,54,24.10
2018,07,13,12,55,24.10
2018,07,13,12,56,24.10
2018,07,13,12,57,24.10
2018,07,13,12,58,24.10
2018,07,13,12,59,24.10
2018,07,13,13,00,24.10
2018,07,13,13,01,24.10
2018,07,13,13,02,24.10
2018,07,13,13,03,24.20
2018,07,13,13,04,24.20
2018,07,13,13,05,24.30
2018,07,13,13,06,24.30
2018,07,13,13,07,24.30
2018,07,13,13,08,24.20
2018,07,13,13,09,24.20
2018,07,13,13,10,24.20
2018,07,13,13,11,24.30
2018,07,13,13,12,24.30
2018,07,13,13,13,24.30
2018,07,13,13,14,24.30
2018,07,13,13,15,24.30
2018,07,13,13,16,24.30
2018,07,13,13,17,24.20
2018,07,13,13,18,24.20
2018,07,13,13,19,24.30
2018,07,13,13,20,24.40
2018,07,13,13,21,24.40
2018,07,13,13,22,24.40
2018,07,13,13,23,24.40
2018,07,13,13,24,24.50
2018,07,13,13,25,24.50
2018,07,13,13,26,24.40
2018,07,13,13,27,24.40
2018,07,13,13,28,24.40
2018,07,13,13,29,24.30
2018,07,13,13,30,24.30
2018,07,13,13,31,24.30
2018,07,13,13,32,24.30
2018,07,13,13,33,24.40
2018,07,13,13,34,24.40
2018,07,13,13,35,24.50
2018,07,13,13,36,24.50
2018,07,13,13,37,24.60
2018,07,13,13,38,24.60
2018,07,13,13,39,24.70
2018,07,13,13,40,24.70
2018,07,13,13,41,24.80
2018,07,13,13,42,24.80
2018,07,13,13,43,24.90
2018,07,13,13,44,24.90
2018,07,13,13,45,25.00
2018,07,13,13,46,25.10
2018,07,13,13,47,25.10
2018,07,13,13,48,25.10
2018,07,13,13,49,25.00
2018,07,13,13,50,25.00
2018,07,13,13,51,25.00
2018,07,13,13,52,25.00
2018,07,13,13,53,25.00
2018,07,13,13,54,25.00
2018,07,13,13,55,24.90
2018,07,13,13,56,24.80
2018,07,13,13,57,24.70
2018,07,13,13,58,24.60
2018,07,13,13,59,24.60
2018,07,13,14,00,24.70
2018,07,13,14,01,24.70
2018,07,13,14,02,24.70
2018,07,13,14,03,24.80
2018,07,13,14,04,24.80
2018,07,13,14,05,24.80
2018,07,13,14,06,24.80
2018,07,13,14,07,24.80
2018,07,13,14,08,24.90
2018,07,13,14,09,24.90
2018,07,13,14,10,24.90
2018,07,13,14,11,24.80
2018,07,13,14,12,24.80
2018,07,13,14,13,24.80
2018,07,13,14,14,24.90
2018,07,13,14,15,24.90
2018,07,13,14,16,24.90
2018,07,13,14,17,24.90
2018,07,13,14,18,24.80
2018,07,13,14,19,24.80
2018,07,13,14,20,24.80
2018,07,13,14,21,24.80
2018,07,13,14,22,24.90
2018,07,13,14,23,24.90
2018,07,13,14,24,24.90
2018,07,13,14,25,24.80
2018,07,13,14,26,24.80
2018,07,13,14,27,24.70
2018,07,13,14,28,24.70
2018,07,13,14,29,24.70
2018,07,13,14,30,24.70
2018,07,13,14,31,24.70
2018,07,13,14,32,24.60
2018,07,13,14,33,24.60
2018,07,13,14,34,24.60
2018,07,13,14,35,24.60
2018,07,13,14,36,24.60
2018,07,13,14,37,24.70
2018,07,13,14,38,24.70
2018,07,13,14,39,24.80
2018,07,13,14,40,24.80
2018,07,13,14,41,24.80
2018,07,13,14,42,24.80
2018,07,13,14,43,24.80
2018,07,13,14,44,24.70
2018,07,13,14,45,24.70
2018,07,13,14,46,24.60
2018,07,13,14,47,24.60
2018,07,13,14,48,24.60
2018,07,13,14,49,24.50
2018,07,13,14,50,24.50
2018,07,13,14,51,24.50
2018,07,13,14,52,24.50
2018,07,13,14,53,24.50
2018,07,13,14,54,24.60
2018,07,13,14,55,24.70
2018,07,13,14,56,24.80
2018,07,13,14,57,24.80
2018,07,13,14,58,24.90
2018,07,13,14,59,25.00
2018,07,13,15,00,25.00
2018,07,13,15,01,25.10
2018,07,13,15,02,25.10
2018,07,13,15,03,25.20
2018,07,13,15,04,25.10
2018,07,13,15,05,25.10
2018,07,13,15,06,25.20
2018,07,13,15,07,25.20
2018,07,13,15,08,25.20
2018,07,13,15,09,25.20
2018,07,13,15,10,25.20
2018,07,13,15,11,25.20
2018,07,13,15,12,25.20
2018,07,13,15,13,25.10
2018,07,13,15,14,25.00
2018,07,13,15,15,24.90
2018,07,13,15,16,24.90
2018,07,13,15,17,24.90
2018,07,13,15,18,24.80
2018,07,13,15,19,24.90
2018,07,13,15,20,25.00
2018,07,13,15,21,25.00
2018,07,13,15,22,25.10
2018,07,13,15,23,25.10
2018,07,13,15,24,25.20
2018,07,13,15,25,25.20
2018,07,13,15,26,25.20
2018,07,13,15,27,25.10
2018,07,13,15,28,25.10
2018,07,13,15,29,25.10
2018,07,13,15,30,25.10
2018,07,13,15,31,25.00
2018,07,13,15,32,25.00
2018,07,13,15,33,25.00
2018,07,13,15,34,25.00
2018,07,13,15,35,24.90
2018,07,13,15,36,24.90
2018,07,13,15,37,24.80
2018,07,13,15,38,24.80
2018,07,13,15,39,24.80
2018,07,13,15,40,24.80
2018,07,13,15,41,24.80
2018,07,13,15,42,24.80
2018,07,13,15,43,24.80
2018,07,13,15,44,24.90
2018,07,13,15,45,24.90
2018,07,13,15,46,24.90
2018,07,13,15,47,25.00
2018,07,13,15,48,25.00
2018,07,13,15,49,25.10
2018,07,13,15,50,25.10
2018,07,13,15,51,25.00
2018,07,13,15,52,25.00
2018,07,13,15,53,24.90
2018,07,13,15,54,24.80
2018,07,13,15,55,24.80
2018,07,13,15,56,24.80
2018,07,13,15,57,24.80
2018,07,13,15,58,24.80
2018,07,13,15,59,24.80
2018,07,13,16,00,24.90
2018,07,13,16,01,24.90
2018,07,13,16,02,24.90
2018,07,13,16,03,24.90
2018,07,13,16,04,24.80
2018,07,13,16,05,24.90
2018,07,13,16,06,24.90
2018,07,13,16,07,24.90
2018,07,13,16,08,24.90
2018,07,13,16,09,24.90
2018,07,13,16,10,24.90
2018,07,13,16,11,24.80
2018,07,13,16,12,24.80
2018,07,13,16,13,24.80
2018,07,13,16,14,24.80
2018,07,13,16,15,24.80
2018,07,13,16,16,24.80
2018,07,13,16,17,24.80
2018,07,13,16,18,24.80
2018,07,13,16,19,24.80
2018,07,13,16,20,24.80
2018,07,13,16,21,24.80
2018,07,13,16,22,24.90
2018,07,13,16,23,24.90
2018,07,13,16,24,25.00
2018,07,13,16,25,25.10
2018,07,13,16,26,25.10
2018,07,13,16,27,25.20
2018,07,13,16,28,25.10
2018,07,13,16,29,25.10
2018,07,13,16,30,25.00
2018,07,13,16,31,24.90
2018,07,13,16,32,24.90
2018,07,13,16,33,24.90
2018,07,13,16,34,24.90
2018,07,13,16,35,24.90
2018,07,13,16,36,24.90
2018,07,13,16,37,24.90
2018,07,13,16,38,25.00
2018,07,13,16,39,25.00
2018,07,13,16,40,25.00
2018,07,13,16,41,25.00
2018,07,13,16,42,25.10
2018,07,13,16,43,25.10
2018,07,13,16,44,25.20
2018,07,13,16,45,25.20
2018,07,13,16,46,25.30
2018,07,13,16,47,25.50
2018,07,13,16,48,25.50
2018,07,13,16,49,25.60
2018,07,13,16,50,25.60
2018,07,13,16,51,25.60
2018,07,13,16,52,25.70
2018,07,13,16,53,25.70
2018,07,13,16,54,25.70
2018,07,13,16,55,25.70
2018,07,13,16,56,25.70
2018,07,13,16,57,25.70
2018,07,13,16,58,25.80
2018,07,13,16,59,25.80
2018,07,13,17,00,25.90
2018,07,13,17,01,25.90
2018,07,13,17,02,25.90
2018,07,13,17,03,26.00
2018,07,13,17,04,26.10
2018,07,13,17,05,26.10
2018,07,13,17,06,26.20
2018,07,13,17,07,26.20
2018,07,13,17,08,26.20
2018,07,13,17,09,26.30
2018,07,13,17,10,26.30
2018,07,13,17,11,26.30
2018,07,13,17,12,26.30
2018,07,13,17,13,26.30
2018,07,13,17,14,26.30
2018,07,13,17,15,26.30
2018,07,13,17,16,26.40
2018,07,13,17,17,26.40
2018,07,13,17,18,26.40
2018,07,13,17,19,26.40